Location: Arbon
(43.0005°N, 0.7472°E)
Time: 00:19:52
(UTC+00:00)

S-56A Canister/Altair - Pass Details

Date: 04 December 2020
Orbit: 633 x 2499 km, 38.9° (Epoch: 19 January)

Event Time Altitude Azimuth Distance (km) Brightness Sun altitude
Rises 16:24:51 0° 219° (SW) 6,164 13.7 -1.2°
Reaches altitude 10° 16:29:20 10° 213° (SSW) 5,102 12.9 -1.9°
Maximum altitude 16:42:17 41° 151° (SSE) 2,835 10.4 -4.0°
Drops below altitude 10° 16:52:16 10° 86° (E) 3,969 10.6 -5.6°
Enters shadow 16:53:54 - 82° (E) 4,364 10.8 -5.9°
